sat.trackr.live / text

‹ back to catalog

STARLINK-5879

NORAD 57153 · 2023-090BE

PAYLOAD ACTIVE UNKNOWN

§ Identity

Operator
Country
US
Launch date
2023-06-23
Launch site
AFETR
Launch vehicle
Mass (kg)
RCS (m²)

Purposes: comms

External: N2YO · Heavens-Above · Gunter

§ Orbital elements

Epoch: 2026-09-20T22:51:58.572000Z

Period
94.27 min
Inclination
43.0024°
Eccentricity
0.0000692
Mean motion
15.27585015 rev/d
Perigee alt
482.6 km
Apogee alt
483.5 km
Semi-major
6,861.2 km
B*
1.4309e-6
RAAN
229.5125°
Arg perigee
300.9681°
Mean anomaly
59.1103°
Rev number
18,003

§ Raw data

STARLINK-58791 57153U 23090BE  26263.95276125 -.00000222  00000+0  14309-5 0  99992 57153  43.0024 229.5125 0000692 300.9681  59.1103 15.27585015180036

JSON: /api/v1/satellites/57153 · /tle

For live sub-satellite position, see the globe view (requires WebGL).

§ Visibility from observer

Set your observer location to see the next 7 days of passes ≥ 10°. The values pass through the URL so the page stays shareable.

No JS? Fill the form by hand. The geolocation button needs JavaScript.